This is the latest recevied weather packets stored in our database for station/object N7ZAP. If no packets are shown the sender has not sent any weather packets the latest 10 day(s).
| Time | Temp. | Humidity | Pressure | Rain* | Wind** | Luminosity | Snow |
|---|---|---|---|---|---|---|---|
| 1776878613 | 25.56° C | 15% | 1017.4 hPa | 0 mm | - | - | - |
| 1776878309 | 25° C | 15% | 1017.5 hPa | 0 mm | - | - | - |
| 1776878005 | 25° C | 16% | 1017.8 hPa | 0 mm | - | - | - |
| 1776877701 | 25° C | 16% | 1017.8 hPa | 0 mm | - | - | - |
| 1776877397 | 25.56° C | 15% | 1017.7 hPa | 0 mm | - | - | - |
| 1776877096 | 25° C | 15% | 1017.8 hPa | 0 mm | - | - | - |
| 1776876793 | 24.44° C | 16% | 1018 hPa | 0 mm | - | - | - |
| 1776876490 | 23.89° C | 17% | 1018.4 hPa | 0 mm | - | - | - |
| 1776876187 | 24.44° C | 16% | 1018.2 hPa | 0 mm | - | - | - |
| 1776875883 | 23.89° C | 17% | 1018 hPa | 0 mm | - | - | - |
| 1776875580 | 23.33° C | 18% | 1018.1 hPa | 0 mm | - | - | - |
| 1776875276 | 23.89° C | 18% | 1018.4 hPa | 0 mm | - | - | - |
| 1776874972 | 23.89° C | 18% | 1018.5 hPa | 0 mm | - | - | - |
| 1776874669 | 23.89° C | 17% | 1018.2 hPa | 0 mm | - | - | - |
| 1776874366 | 23.89° C | 18% | 1018.5 hPa | 0 mm | - | - | - |
| 1776874065 | 23.33° C | 19% | 1018.4 hPa | 0 mm | - | - | - |
| 1776873761 | 23.33° C | 19% | 1018.2 hPa | 0 mm | - | - | - |
| 1776873458 | 22.78° C | 18% | 1018.4 hPa | 0 mm | - | - | - |
| 1776873153 | 22.22° C | 19% | 1018.5 hPa | 0 mm | - | - | - |
| 1776872850 | 22.22° C | 19% | 1018.4 hPa | 0 mm | - | - | - |
* Rain latest hour (hover to see other rain measurements)
** Current wind speed in m/s (hover to see current wind gust speed)